| time (UTC) | temp F | wind direction | speed knots | gust knots | rain 1hr in | rain 24hr in | rain mn in | humidity % | barometer mb |
| 20260507185525 | 58 | 271 | 3.5 | 7.0 | 0.00 | 0.00 | 0.00 | 46 | 1010.6 |
| 20260507185004 | 58 | 267 | 3.5 | 6.1 | 0.00 | 0.00 | 0.00 | 45 | 1010.6 |
| 20260507184504 | 58 | 264 | 3.5 | 6.1 | 0.00 | 0.00 | 0.00 | 44 | 1010.6 |
| 20260507184004 | 58 | 264 | 3.5 | 6.1 | 0.00 | 0.00 | 0.00 | 44 | 1010.6 |
| 20260507183504 | 58 | 268 | 4.3 | 6.1 | 0.00 | 0.00 | 0.00 | 45 | 1010.6 |
| 20260507183004 | 58 | 269 | 4.3 | 7.8 | 0.00 | 0.00 | 0.00 | 45 | 1010.6 |
| 20260507182505 | 58 | 270 | 4.3 | 7.8 | 0.00 | 0.00 | 0.00 | 46 | 1010.6 |
| 20260507182026 | 58 | 273 | 4.3 | 7.8 | 0.00 | 0.00 | 0.00 | 45 | 1010.6 |
| 20260507181525 | 58 | 280 | 4.3 | 7.8 | 0.00 | 0.00 | 0.00 | 46 | 1010.6 |
| 20260507181005 | 58 | 280 | 4.3 | 7.8 | 0.00 | 0.00 | 0.00 | 44 | 1010.6 |
| 20260507180504 | 58 | 284 | 4.3 | 9.6 | 0.00 | 0.00 | 0.00 | 45 | 1010.6 |
| 20260507180005 | 58 | 291 | 5.2 | 9.6 | 0.00 | 0.00 | 0.00 | 44 | 1010.6 |
| 20260507175504 | 58 | 295 | 4.3 | 8.7 | 0.00 | 0.00 | 0.00 | 47 | 1010.6 |
| 20260507175005 | 58 | 296 | 4.3 | 8.7 | 0.00 | 0.00 | 0.00 | 45 | 1010.6 |
| 20260507174504 | 59 | 270 | 4.3 | 9.6 | 0.00 | 0.00 | 0.00 | 47 | 1010.6 |
| 20260507174026 | 58 | 253 | 4.3 | 9.6 | 0.00 | 0.00 | 0.00 | 50 | 1010.6 |
| 20260507173504 | 59 | 265 | 3.5 | 8.7 | 0.00 | 0.00 | 0.00 | 46 | 1010.6 |
| 20260507173025 | 59 | 261 | 2.6 | 8.7 | 0.00 | 0.00 | 0.00 | 45 | 1010.6 |
| 20260507172504 | 59 | 237 | 2.6 | 6.1 | 0.00 | 0.00 | 0.00 | 53 | 1010.6 |
| 20260507172004 | 57 | 261 | 3.5 | 7.0 | 0.00 | 0.00 | 0.00 | 50 | 1010.6 |
| 20260507171505 | 57 | 274 | 3.5 | 7.0 | 0.00 | 0.00 | 0.00 | 50 | 1010.6 |
| 20260507171005 | 58 | 290 | 3.5 | 7.8 | 0.00 | 0.00 | 0.00 | 47 | 1010.6 |
| 20260507170504 | 59 | 301 | 3.5 | 7.8 | 0.00 | 0.00 | 0.00 | 47 | 1010.6 |
| 20260507170005 | 58 | 298 | 3.5 | 7.0 | 0.00 | 0.00 | 0.00 | 47 | 1010.6 |
| 20260507165525 | 58 | 293 | 5.2 | 6.1 | 0.00 | 0.00 | 0.00 | 53 | 1010.6 |
| 20260507165004 | 57 | 294 | 5.2 | 7.0 | 0.00 | 0.00 | 0.00 | 49 | 1010.6 |
| 20260507164504 | 58 | 296 | 4.3 | 11.3 | 0.00 | 0.00 | 0.00 | 46 | 1010.6 |
| 20260507164004 | 58 | 293 | 3.5 | 11.3 | 0.00 | 0.00 | 0.00 | 46 | 1010.6 |
| 20260507163505 | 58 | 257 | 3.5 | 7.0 | 0.00 | 0.00 | 0.00 | 51 | 1010.6 |
| 20260507163005 | 58 | 286 | 3.5 | 7.0 | 0.00 | 0.00 | 0.00 | 53 | 1010.6 |
| 20260507162525 | 58 | 301 | 3.5 | 7.0 | 0.00 | 0.00 | 0.00 | 48 | 1010.6 |
| 20260507162004 | 57 | 285 | 4.3 | 7.0 | 0.00 | 0.00 | 0.00 | 54 | 1010.6 |
| 20260507161504 | 56 | 286 | 3.5 | 7.0 | 0.00 | 0.00 | 0.00 | 49 | 1010.6 |
| 20260507161005 | 57 | 284 | 4.3 | 7.0 | 0.00 | 0.00 | 0.00 | 48 | 1010.6 |
| 20260507160505 | 57 | 282 | 4.3 | 7.0 | 0.00 | 0.00 | 0.00 | 49 | 1010.6 |
| 20260507160005 | 57 | 300 | 4.3 | 7.8 | 0.00 | 0.00 | 0.00 | 51 | 1010.6 |
| 20260507155505 | 57 | 314 | 4.3 | 7.8 | 0.00 | 0.00 | 0.00 | 49 | 1010.6 |
| 20260507155005 | 58 | 302 | 4.3 | 7.8 | 0.00 | 0.00 | 0.00 | 46 | 1010.6 |
| 20260507154504 | 57 | 284 | 3.5 | 10.4 | 0.00 | 0.00 | 0.00 | 48 | 1010.6 |
| 20260507154004 | 57 | 271 | 3.5 | 10.4 | 0.00 | 0.00 | 0.00 | 48 | 1010.6 |
| 20260507153525 | 57 | 254 | 3.5 | 6.1 | 0.00 | 0.00 | 0.00 | 47 | 1010.7 |
| 20260507153004 | 56 | 261 | 3.5 | 7.0 | 0.00 | 0.00 | 0.00 | 48 | 1010.8 |
| 20260507152504 | 55 | 271 | 3.5 | 7.0 | 0.00 | 0.00 | 0.00 | 48 | 1010.9 |
| 20260507152005 | 55 | 278 | 3.5 | 7.0 | 0.00 | 0.00 | 0.00 | 51 | 1011.0 |
| 20260507151526 | 55 | 285 | 3.5 | 7.0 | 0.00 | 0.00 | 0.00 | 52 | 1011.1 |
| 20260507151005 | 54 | 283 | 3.5 | 7.0 | 0.00 | 0.00 | 0.00 | 54 | 1011.2 |
| 20260507150505 | 54 | 289 | 2.6 | 7.0 | 0.00 | 0.00 | 0.00 | 53 | 1011.3 |
| 20260507150006 | 55 | 287 | 2.6 | 6.1 | 0.00 | 0.00 | 0.00 | 54 | 1011.3 |
| 20260507145504 | 56 | 278 | 2.6 | 8.7 | 0.00 | 0.00 | 0.00 | 54 | 1011.4 |
| 20260507145005 | 56 | 253 | 2.6 | 8.7 | 0.00 | 0.00 | 0.00 | 53 | 1011.4 |
| 20260507144504 | 57 | 237 | 2.6 | 5.2 | 0.00 | 0.00 | 0.00 | 54 | 1011.5 |
| 20260507144005 | 56 | 250 | 2.6 | 6.1 | 0.00 | 0.00 | 0.00 | 58 | 1011.5 |
| 20260507143525 | 56 | 227 | 2.6 | 7.0 | 0.00 | 0.00 | 0.00 | 61 | 1011.7 |
| 20260507143026 | 56 | 219 | 2.6 | 7.0 | 0.00 | 0.00 | 0.00 | 58 | 1011.7 |
| 20260507142504 | 55 | 241 | 2.6 | 6.1 | 0.00 | 0.00 | 0.00 | 57 | 1011.8 |
| 20260507142005 | 55 | 250 | 3.5 | 7.0 | 0.00 | 0.00 | 0.00 | 61 | 1011.8 |
| 20260507141504 | 54 | 220 | 3.5 | 7.0 | 0.00 | 0.00 | 0.00 | 62 | 1011.9 |
| 20260507141025 | 54 | 213 | 2.6 | 7.0 | 0.00 | 0.01 | 0.00 | 59 | 1011.9 |
| 20260507140505 | 54 | 217 | 2.6 | 7.0 | 0.00 | 0.01 | 0.00 | 61 | 1012.0 |
| 20260507140006 | 54 | 207 | 3.5 | 7.0 | 0.00 | 0.01 | 0.00 | 61 | 1012.1 |
| 20260507135504 | 53 | 205 | 2.6 | 7.0 | 0.00 | 0.02 | 0.00 | 62 | 1012.1 |
| 20260507135005 | 53 | 218 | 1.7 | 7.8 | 0.00 | 0.03 | 0.00 | 66 | 1012.2 |
| 20260507134504 | 53 | 239 | 1.7 | 7.8 | 0.00 | 0.04 | 0.00 | 67 | 1012.2 |
| 20260507134004 | 52 | 232 | 1.7 | 5.2 | 0.00 | 0.04 | 0.00 | 68 | 1012.2 |
| 20260507133505 | 52 | 226 | 1.7 | 5.2 | 0.00 | 0.04 | 0.00 | 71 | 1012.3 |
| 20260507133004 | 51 | 255 | 2.6 | 3.5 | 0.00 | 0.04 | 0.00 | 73 | 1012.4 |
| 20260507132504 | 50 | 241 | 2.6 | 3.5 | 0.00 | 0.04 | 0.00 | 75 | 1012.3 |
| 20260507132004 | 49 | 211 | 2.6 | 6.1 | 0.00 | 0.04 | 0.00 | 75 | 1012.3 |
| 20260507131505 | 48 | 207 | 1.7 | 6.1 | 0.00 | 0.04 | 0.00 | 76 | 1012.3 |
| 20260507131005 | 48 | 224 | 0.9 | 4.3 | 0.00 | 0.04 | 0.00 | 77 | 1012.2 |
| 20260507130505 | 46 | 245 | 0.9 | 3.5 | 0.00 | 0.04 | 0.00 | 81 | 1012.3 |
| 20260507130004 | 45 | 208 | 0.9 | 3.5 | 0.00 | 0.04 | 0.00 | 84 | 1012.2 |
| 20260507125525 | 44 | 207 | 0.0 | 3.5 | 0.00 | 0.04 | 0.00 | 86 | 1012.4 |
| 20260507125004 | 43 | 256 | 0.9 | 1.7 | 0.00 | 0.04 | 0.00 | 90 | 1012.4 |
| 20260507124525 | 42 | 218 | 1.7 | 3.5 | 0.00 | 0.04 | 0.00 | 93 | 1012.4 |
| 20260507124004 | 41 | 204 | 1.7 | 3.5 | 0.00 | 0.04 | 0.00 | 93 | 1012.4 |
| 20260507123504 | 40 | 203 | 0.9 | 2.6 | 0.00 | 0.04 | 0.00 | 93 | 1012.3 |
| 20260507123004 | 39 | 213 | 0.9 | 2.6 | 0.00 | 0.05 | 0.00 | 93 | 1012.3 |
| 20260507122504 | 38 | 211 | 0.9 | 2.6 | 0.00 | 0.05 | 0.00 | 93 | 1012.4 |
| 20260507122005 | 38 | 210 | 0.0 | 2.6 | 0.00 | 0.05 | 0.00 | 93 | 1012.4 |
| 20260507121504 | 37 | 0 | 0.0 | 0.0 | 0.00 | 0.05 | 0.00 | 93 | 1012.5 |
| 20260507121004 | 37 | 0 | 0.0 | 0.0 | 0.00 | 0.05 | 0.00 | 92 | 1012.4 |
| 20260507120504 | 36 | 0 | 0.0 | 0.0 | 0.00 | 0.05 | 0.00 | 93 | 1012.5 |
| 20260507120005 | 36 | 325 | 0.0 | 0.9 | 0.00 | 0.05 | 0.00 | 92 | 1012.5 |
| 20260507115504 | 35 | 325 | 0.0 | 0.9 | 0.00 | 0.05 | 0.00 | 92 | 1012.5 |
| 20260507115004 | 35 | 324 | 0.0 | 0.9 | 0.00 | 0.05 | 0.00 | 92 | 1012.5 |
| 20260507114505 | 35 | 0 | 0.0 | 0.0 | 0.00 | 0.06 | 0.00 | 92 | 1012.5 |
| 20260507114004 | 35 | 0 | 0.0 | 0.0 | 0.00 | 0.06 | 0.00 | 92 | 1012.5 |
| 20260507113526 | 34 | 0 | 0.0 | 0.0 | 0.00 | 0.07 | 0.00 | 91 | 1012.5 |
| 20260507113005 | 34 | 0 | 0.0 | 0.0 | 0.00 | 0.09 | 0.00 | 91 | 1012.4 |
| 20260507112505 | 34 | 0 | 0.0 | 0.0 | 0.00 | 0.10 | 0.00 | 91 | 1012.4 |
| 20260507112004 | 34 | 0 | 0.0 | 0.0 | 0.00 | 0.12 | 0.00 | 91 | 1012.4 |
| 20260507111504 | 34 | 105 | 0.0 | 1.7 | 0.00 | 0.14 | 0.00 | 91 | 1012.3 |
| 20260507111004 | 33 | 105 | 0.0 | 1.7 | 0.00 | 0.15 | 0.00 | 90 | 1012.2 |
| 20260507110504 | 33 | 0 | 0.0 | 0.0 | 0.00 | 0.18 | 0.00 | 90 | 1012.2 |
| 20260507110004 | 33 | 0 | 0.0 | 0.0 | 0.00 | 0.19 | 0.00 | 90 | 1012.2 |
| 20260507105504 | 33 | 0 | 0.0 | 0.0 | 0.00 | 0.21 | 0.00 | 90 | 1012.2 |
| 20260507105004 | 33 | 0 | 0.0 | 0.0 | 0.00 | 0.24 | 0.00 | 90 | 1012.2 |
| 20260507104505 | 33 | 0 | 0.0 | 0.0 | 0.00 | 0.26 | 0.00 | 89 | 1012.2 |
| 20260507104005 | 33 | 0 | 0.0 | 0.0 | 0.00 | 0.27 | 0.00 | 89 | 1012.1 |
| 20260507103505 | 33 | 0 | 0.0 | 0.0 | 0.00 | 0.28 | 0.00 | 89 | 1012.0 |
| 20260507103004 | 33 | 0 | 0.0 | 0.0 | 0.00 | 0.29 | 0.00 | 89 | 1012.0 |
| 20260507102505 | 33 | 0 | 0.0 | 0.0 | 0.00 | 0.31 | 0.00 | 89 | 1011.9 |
| 20260507102006 | 33 | 0 | 0.0 | 0.0 | 0.00 | 0.32 | 0.00 | 89 | 1011.9 |
| 20260507101505 | 34 | 0 | 0.0 | 0.0 | 0.00 | 0.33 | 0.00 | 88 | 1011.9 |
| 20260507101004 | 34 | 0 | 0.0 | 0.0 | 0.00 | 0.35 | 0.00 | 88 | 1011.9 |
| 20260507100504 | 34 | 0 | 0.0 | 0.0 | 0.00 | 0.36 | 0.00 | 88 | 1012.0 |
| 20260507100004 | 34 | 0 | 0.0 | 0.0 | 0.00 | 0.37 | 0.00 | 88 | 1012.0 |
| 20260507095525 | 34 | 0 | 0.0 | 0.0 | 0.00 | 0.39 | 0.00 | 87 | 1012.0 |
| 20260507095025 | 34 | 0 | 0.0 | 0.0 | 0.00 | 0.39 | 0.00 | 88 | 1012.0 |
| 20260507094504 | 34 | 0 | 0.0 | 0.0 | 0.00 | 0.40 | 0.00 | 87 | 1012.0 |
| 20260507094005 | 35 | 0 | 0.0 | 0.0 | 0.00 | 0.41 | 0.00 | 87 | 1012.0 |
| 20260507093504 | 35 | 0 | 0.0 | 0.0 | 0.00 | 0.42 | 0.00 | 87 | 1011.9 |
| 20260507093004 | 35 | 0 | 0.0 | 0.0 | 0.00 | 0.43 | 0.00 | 87 | 1011.9 |
| 20260507092504 | 35 | 0 | 0.0 | 0.0 | 0.00 | 0.43 | 0.00 | 86 | 1011.9 |
| 20260507092026 | 35 | 0 | 0.0 | 0.0 | 0.00 | 0.45 | 0.00 | 86 | 1012.0 |
| 20260507091504 | 36 | 0 | 0.0 | 0.0 | 0.00 | 0.45 | 0.00 | 86 | 1012.0 |
| 20260507091004 | 36 | 0 | 0.0 | 0.0 | 0.00 | 0.46 | 0.00 | 86 | 1011.9 |
| 20260507090504 | 36 | 0 | 0.0 | 0.0 | 0.00 | 0.46 | 0.00 | 85 | 1011.9 |
| 20260507090005 | 36 | 0 | 0.0 | 0.0 | 0.00 | 0.46 | 0.00 | 85 | 1011.8 |
| 20260507085504 | 36 | 0 | 0.0 | 0.0 | 0.00 | 0.46 | 0.00 | 85 | 1011.8 |
| 20260507085004 | 36 | 0 | 0.0 | 0.0 | 0.00 | 0.46 | 0.00 | 85 | 1011.8 |
| 20260507084526 | 37 | 0 | 0.0 | 0.0 | 0.00 | 0.46 | 0.00 | 84 | 1011.8 |
| 20260507084004 | 37 | 0 | 0.0 | 0.0 | 0.00 | 0.46 | 0.00 | 84 | 1011.8 |
| 20260507083505 | 37 | 0 | 0.0 | 0.0 | 0.00 | 0.46 | 0.00 | 83 | 1011.9 |
| 20260507083005 | 37 | 0 | 0.0 | 0.0 | 0.00 | 0.46 | 0.00 | 83 | 1011.9 |
| 20260507082504 | 38 | 0 | 0.0 | 0.0 | 0.00 | 0.47 | 0.00 | 83 | 1011.9 |
| 20260507082004 | 38 | 0 | 0.0 | 0.0 | 0.00 | 0.47 | 0.00 | 82 | 1012.0 |
| 20260507081504 | 38 | 0 | 0.0 | 0.0 | 0.00 | 0.47 | 0.00 | 82 | 1012.0 |
| 20260507081004 | 38 | 0 | 0.0 | 0.0 | 0.00 | 0.47 | 0.00 | 81 | 1012.0 |
| 20260507080504 | 39 | 0 | 0.0 | 0.0 | 0.00 | 0.47 | 0.00 | 81 | 1011.9 |
| 20260507080005 | 39 | 0 | 0.0 | 0.0 | 0.00 | 0.47 | 0.00 | 80 | 1011.8 |
| 20260507075505 | 39 | 0 | 0.0 | 0.0 | 0.00 | 0.47 | 0.00 | 80 | 1011.9 |
| 20260507075025 | 40 | 0 | 0.0 | 0.0 | 0.00 | 0.47 | 0.00 | 80 | 1012.0 |
| 20260507074504 | 40 | 0 | 0.0 | 0.0 | 0.00 | 0.47 | 0.00 | 79 | 1012.0 |
| 20260507074005 | 40 | 0 | 0.0 | 0.0 | 0.00 | 0.48 | 0.00 | 79 | 1012.0 |
| 20260507073505 | 40 | 0 | 0.0 | 0.0 | 0.00 | 0.48 | 0.00 | 79 | 1012.0 |
| 20260507073005 | 41 | 0 | 0.0 | 0.0 | 0.00 | 0.49 | 0.00 | 78 | 1011.9 |
| 20260507072504 | 41 | 0 | 0.0 | 0.0 | 0.00 | 0.49 | 0.00 | 78 | 1011.9 |
| 20260507072005 | 42 | 0 | 0.0 | 0.0 | 0.00 | 0.49 | 0.00 | 77 | 1011.8 |
| 20260507071505 | 42 | 0 | 0.0 | 0.0 | 0.00 | 0.50 | 0.00 | 77 | 1011.8 |
| 20260507071004 | 42 | 0 | 0.0 | 0.0 | 0.00 | 0.50 | 0.00 | 76 | 1011.8 |
| 20260507070504 | 42 | 0 | 0.0 | 0.0 | 0.00 | 0.51 | 0.00 | 76 | 1011.9 |
| 20260507070009 | 43 | 0 | 0.0 | 0.0 | 0.00 | 0.52 | 0.00 | 75 | 1011.9 |
| 20260507065504 | 43 | 0 | 0.0 | 0.0 | 0.00 | 0.52 | 0.00 | 75 | 1012.0 |
| 20260507065005 | 44 | 0 | 0.0 | 0.0 | 0.00 | 0.53 | 0.00 | 74 | 1012.0 |
| 20260507064504 | 44 | 0 | 0.0 | 0.0 | 0.00 | 0.53 | 0.00 | 73 | 1011.9 |
| 20260507064004 | 44 | 0 | 0.0 | 0.0 | 0.00 | 0.54 | 0.00 | 72 | 1011.9 |
| 20260507063504 | 44 | 0 | 0.0 | 0.0 | 0.00 | 0.54 | 0.00 | 71 | 1011.9 |
| 20260507063004 | 45 | 0 | 0.0 | 0.0 | 0.00 | 0.55 | 0.00 | 71 | 1011.9 |
| 20260507062504 | 45 | 0 | 0.0 | 0.0 | 0.00 | 0.55 | 0.00 | 71 | 1011.8 |
| 20260507062004 | 45 | 0 | 0.0 | 0.0 | 0.00 | 0.55 | 0.00 | 70 | 1011.9 |
| 20260507061504 | 45 | 0 | 0.0 | 0.0 | 0.00 | 0.56 | 0.00 | 70 | 1012.0 |
| 20260507061004 | 45 | 0 | 0.0 | 0.0 | 0.00 | 0.56 | 0.00 | 70 | 1012.0 |
| 20260507060505 | 45 | 0 | 0.0 | 0.0 | 0.00 | 0.57 | 0.00 | 71 | 1012.0 |
| 20260507060004 | 45 | 0 | 0.0 | 0.0 | 0.00 | 0.57 | 0.00 | 71 | 1012.0 |
| 20260507055504 | 45 | 260 | 0.0 | 1.7 | 0.00 | 0.57 | 0.00 | 71 | 1012.2 |
| 20260507055004 | 45 | 261 | 0.0 | 1.7 | 0.00 | 0.58 | 0.00 | 71 | 1012.4 |
| 20260507054525 | 46 | 263 | 0.0 | 0.9 | 0.00 | 0.58 | 0.00 | 70 | 1012.4 |
| 20260507054004 | 46 | 0 | 0.0 | 0.0 | 0.00 | 0.59 | 0.00 | 70 | 1012.4 |
| 20260507053504 | 46 | 0 | 0.0 | 0.0 | 0.00 | 0.59 | 0.00 | 69 | 1012.5 |
| 20260507053026 | 46 | 279 | 0.9 | 1.7 | 0.00 | 0.59 | 0.00 | 68 | 1012.6 |
| 20260507052504 | 46 | 283 | 0.9 | 1.7 | 0.00 | 0.59 | 0.00 | 68 | 1012.6 |
| 20260507052004 | 46 | 286 | 0.9 | 1.7 | 0.00 | 0.59 | 0.00 | 67 | 1012.6 |
| 20260507051504 | 46 | 289 | 0.9 | 2.6 | 0.00 | 0.59 | 0.00 | 68 | 1012.5 |
| 20260507051004 | 46 | 283 | 0.9 | 2.6 | 0.00 | 0.59 | 0.00 | 67 | 1012.5 |
| 20260507050505 | 46 | 274 | 0.0 | 1.7 | 0.00 | 0.59 | 0.00 | 67 | 1012.6 |
| 20260507050004 | 46 | 277 | 0.0 | 1.7 | 0.00 | 0.59 | 0.00 | 67 | 1012.6 |
| 20260507045504 | 46 | 287 | 0.0 | 2.6 | 0.00 | 0.59 | 0.00 | 66 | 1012.5 |
| 20260507045025 | 46 | 290 | 0.0 | 2.6 | 0.00 | 0.59 | 0.00 | 67 | 1012.6 |
| 20260507044504 | 46 | 0 | 0.0 | 0.0 | 0.00 | 0.59 | 0.00 | 66 | 1012.5 |
| 20260507044026 | 46 | 296 | 0.9 | 2.6 | 0.00 | 0.59 | 0.00 | 66 | 1012.5 |
| 20260507043504 | 46 | 293 | 1.7 | 2.6 | 0.00 | 0.59 | 0.00 | 65 | 1012.4 |
| 20260507043004 | 46 | 291 | 1.7 | 2.6 | 0.00 | 0.59 | 0.00 | 64 | 1012.3 |
| 20260507042525 | 46 | 288 | 1.7 | 3.5 | 0.00 | 0.59 | 0.00 | 64 | 1012.4 |
| 20260507042004 | 46 | 282 | 0.9 | 3.5 | 0.00 | 0.59 | 0.00 | 65 | 1012.5 |
| 20260507041525 | 46 | 279 | 0.9 | 2.6 | 0.00 | 0.59 | 0.00 | 65 | 1012.5 |
| 20260507041025 | 46 | 291 | 0.9 | 3.5 | 0.00 | 0.59 | 0.00 | 65 | 1012.4 |
| 20260507040505 | 46 | 300 | 0.0 | 3.5 | 0.00 | 0.59 | 0.00 | 65 | 1012.4 |
| 20260507040029 | 46 | 301 | 0.0 | 2.6 | 0.00 | 0.59 | 0.00 | 67 | 1012.4 |
| 20260507035504 | 47 | 0 | 0.0 | 0.0 | 0.00 | 0.59 | 0.59 | 68 | 1012.4 |
| 20260507035004 | 47 | 0 | 0.0 | 0.0 | 0.00 | 0.59 | 0.59 | 70 | 1012.2 |
| 20260507034504 | 47 | 235 | 0.0 | 1.7 | 0.00 | 0.59 | 0.59 | 71 | 1012.3 |
| 20260507034004 | 47 | 235 | 0.0 | 1.7 | 0.00 | 0.59 | 0.59 | 71 | 1012.2 |
| 20260507033504 | 47 | 0 | 0.0 | 0.0 | 0.00 | 0.59 | 0.59 | 71 | 1012.2 |
| 20260507033004 | 47 | 0 | 0.0 | 0.0 | 0.00 | 0.59 | 0.59 | 71 | 1012.2 |
| 20260507032525 | 47 | 0 | 0.0 | 0.0 | 0.00 | 0.59 | 0.59 | 70 | 1012.4 |
| 20260507032004 | 47 | 0 | 0.0 | 0.0 | 0.00 | 0.59 | 0.59 | 68 | 1012.1 |
| 20260507031504 | 47 | 0 | 0.0 | 0.0 | 0.00 | 0.59 | 0.59 | 67 | 1012.0 |
| 20260507031025 | 48 | 0 | 0.0 | 0.0 | 0.00 | 0.59 | 0.59 | 67 | 1011.9 |
| 20260507030504 | 48 | 0 | 0.0 | 0.0 | 0.00 | 0.59 | 0.59 | 67 | 1012.0 |
| 20260507030004 | 48 | 0 | 0.0 | 0.0 | 0.00 | 0.59 | 0.59 | 67 | 1011.9 |
| 20260507025505 | 48 | 0 | 0.0 | 0.0 | 0.00 | 0.59 | 0.59 | 67 | 1011.9 |
| 20260507025004 | 48 | 0 | 0.0 | 0.0 | 0.00 | 0.59 | 0.59 | 67 | 1011.9 |
| 20260507024504 | 48 | 0 | 0.0 | 0.0 | 0.00 | 0.59 | 0.59 | 68 | 1011.8 |
| 20260507024004 | 48 | 0 | 0.0 | 0.0 | 0.00 | 0.59 | 0.59 | 67 | 1011.9 |
| 20260507023504 | 48 | 292 | 0.0 | 0.9 | 0.00 | 0.59 | 0.59 | 65 | 1011.8 |
| 20260507023005 | 48 | 293 | 0.0 | 0.9 | 0.00 | 0.59 | 0.59 | 65 | 1011.8 |
| 20260507022504 | 48 | 360 | 0.0 | 1.7 | 0.00 | 0.59 | 0.59 | 63 | 1011.6 |
| 20260507022005 | 48 | 12 | 0.0 | 1.7 | 0.00 | 0.59 | 0.59 | 62 | 1011.5 |
| 20260507021504 | 49 | 0 | 0.0 | 0.0 | 0.00 | 0.59 | 0.59 | 62 | 1011.6 |
| 20260507021003 | 49 | 0 | 0.0 | 0.0 | 0.00 | 0.59 | 0.59 | 60 | 1011.6 |
| 20260507020526 | 49 | 299 | 0.9 | 1.7 | 0.00 | 0.59 | 0.59 | 60 | 1011.6 |
| 20260507020026 | 49 | 314 | 0.9 | 2.6 | 0.00 | 0.59 | 0.59 | 60 | 1011.7 |
| 20260507015526 | 49 | 323 | 0.9 | 3.5 | 0.00 | 0.59 | 0.59 | 60 | 1011.5 |
| 20260507015005 | 49 | 325 | 1.7 | 3.5 | 0.00 | 0.59 | 0.59 | 59 | 1011.5 |
| 20260507014525 | 49 | 315 | 1.7 | 4.3 | 0.00 | 0.59 | 0.59 | 59 | 1011.6 |
| 20260507014004 | 49 | 320 | 1.7 | 4.3 | 0.00 | 0.59 | 0.59 | 59 | 1011.6 |
| 20260507013504 | 49 | 309 | 1.7 | 5.2 | 0.00 | 0.59 | 0.59 | 59 | 1011.8 |
| 20260507013005 | 50 | 304 | 2.6 | 7.0 | 0.00 | 0.59 | 0.59 | 59 | 1011.9 |
| 20260507012503 | 50 | 313 | 2.6 | 7.0 | 0.00 | 0.59 | 0.59 | 59 | 1012.0 |
| 20260507012004 | 50 | 304 | 2.6 | 7.0 | 0.00 | 0.59 | 0.59 | 61 | 1012.2 |
| 20260507011524 | 50 | 304 | 3.5 | 7.0 | 0.00 | 0.59 | 0.59 | 60 | 1012.2 |
| 20260507011004 | 50 | 313 | 2.6 | 7.8 | 0.00 | 0.59 | 0.59 | 61 | 1012.0 |
| 20260507010504 | 50 | 313 | 2.6 | 7.8 | 0.00 | 0.59 | 0.59 | 61 | 1012.1 |
| 20260507010004 | 50 | 307 | 1.7 | 5.2 | 0.00 | 0.59 | 0.59 | 62 | 1012.0 |
| 20260507005504 | 50 | 305 | 1.7 | 5.2 | 0.00 | 0.59 | 0.59 | 62 | 1012.0 |
| 20260507005004 | 50 | 309 | 2.6 | 6.1 | 0.00 | 0.59 | 0.59 | 62 | 1011.8 |
| 20260507004504 | 50 | 308 | 3.5 | 6.1 | 0.00 | 0.59 | 0.59 | 62 | 1011.8 |
| 20260507004004 | 51 | 296 | 2.6 | 5.2 | 0.00 | 0.59 | 0.59 | 62 | 1011.6 |
| 20260507003504 | 51 | 302 | 2.6 | 7.8 | 0.00 | 0.59 | 0.59 | 62 | 1012.0 |
| 20260507003004 | 51 | 311 | 3.5 | 7.8 | 0.00 | 0.59 | 0.59 | 63 | 1011.9 |
| 20260507002504 | 51 | 304 | 3.5 | 6.1 | 0.00 | 0.59 | 0.59 | 62 | 1011.6 |
| 20260507002004 | 51 | 306 | 3.5 | 7.8 | 0.00 | 0.59 | 0.59 | 63 | 1011.6 |
| 20260507001504 | 51 | 311 | 3.5 | 7.8 | 0.00 | 0.59 | 0.59 | 65 | 1011.6 |
| 20260507001004 | 52 | 307 | 3.5 | 7.8 | 0.00 | 0.59 | 0.59 | 67 | 1011.6 |
| 20260507000504 | 52 | 300 | 3.5 | 5.2 | 0.00 | 0.59 | 0.59 | 67 | 1011.5 |
| 20260507000026 | 52 | 293 | 2.6 | 7.0 | 0.00 | 0.59 | 0.59 | 69 | 1011.2 |
| 20260506235504 | 52 | 289 | 1.7 | 7.0 | 0.00 | 0.59 | 0.59 | 69 | 1011.1 |
| 20260506235025 | 52 | 288 | 0.9 | 3.5 | 0.00 | 0.59 | 0.59 | 70 | 1011.1 |
| 20260506234504 | 52 | 286 | 1.7 | 2.6 | 0.00 | 0.59 | 0.59 | 70 | 1011.1 |
| 20260506234004 | 52 | 283 | 2.6 | 5.2 | 0.00 | 0.59 | 0.59 | 70 | 1011.0 |
| 20260506233504 | 52 | 283 | 2.6 | 5.2 | 0.00 | 0.59 | 0.59 | 70 | 1010.9 |
| 20260506233004 | 52 | 283 | 2.6 | 5.2 | 0.00 | 0.59 | 0.59 | 70 | 1010.8 |
| 20260506232504 | 52 | 282 | 2.6 | 3.5 | 0.00 | 0.59 | 0.59 | 71 | 1010.6 |
| 20260506232004 | 52 | 282 | 2.6 | 6.1 | 0.00 | 0.59 | 0.59 | 72 | 1010.6 |
| 20260506231505 | 52 | 283 | 2.6 | 6.1 | 0.00 | 0.59 | 0.59 | 71 | 1010.6 |
| 20260506231004 | 52 | 279 | 1.7 | 5.2 | 0.00 | 0.59 | 0.59 | 72 | 1010.6 |
| 20260506230503 | 52 | 280 | 0.9 | 5.2 | 0.00 | 0.59 | 0.59 | 73 | |
| 20260506230004 | 52 | 306 | 0.0 | 2.6 | 0.00 | 0.59 | 0.59 | 75 | |
| 20260506225503 | 52 | 294 | 0.0 | 2.6 | 0.00 | 0.59 | 0.59 | 76 | |
| 20260506225004 | 52 | 290 | 0.9 | 2.6 | 0.00 | 0.59 | 0.59 | 75 | |
| 20260506224504 | 52 | 298 | 0.9 | 1.7 | 0.00 | 0.59 | 0.59 | 75 | |
| 20260506224004 | 52 | 317 | 1.7 | 4.3 | 0.00 | 0.59 | 0.59 | 75 | |
| 20260506223504 | 52 | 300 | 2.6 | 4.3 | 0.00 | 0.59 | 0.59 | 74 | |
| 20260506223003 | 52 | 287 | 2.6 | 4.3 | 0.00 | 0.59 | 0.59 | 74 | |
| 20260506222503 | 52 | 304 | 2.6 | 7.0 | 0.00 | 0.59 | 0.59 | 73 | |
| 20260506222003 | 53 | 318 | 2.6 | 7.0 | 0.00 | 0.59 | 0.59 | 74 | |
| 20260506221504 | 53 | 324 | 2.6 | 5.2 | 0.00 | 0.59 | 0.59 | 73 | |
| 20260506221005 | 53 | 316 | 2.6 | 5.2 | 0.00 | 0.59 | 0.59 | 73 | |
| 20260506220504 | 53 | 319 | 3.5 | 5.2 | 0.00 | 0.59 | 0.59 | 73 | |
| 20260506220004 | 53 | 317 | 3.5 | 5.2 | 0.00 | 0.59 | 0.59 | 73 | |
| 20260506215504 | 53 | 303 | 3.5 | 7.0 | 0.00 | 0.59 | 0.59 | 74 | |
| 20260506215006 | 53 | 299 | 3.5 | 7.0 | 0.00 | 0.59 | 0.59 | 73 | |
| 20260506214504 | 53 | 298 | 3.5 | 4.3 | 0.00 | 0.59 | 0.59 | 74 | |
| 20260506214003 | 53 | 305 | 2.6 | 5.2 | 0.00 | 0.59 | 0.59 | 74 | |
| 20260506213504 | 53 | 322 | 2.6 | 6.1 | 0.00 | 0.59 | 0.59 | 74 | |
| 20260506213005 | 53 | 328 | 1.7 | 6.1 | 0.00 | 0.59 | 0.59 | 75 | |
| 20260506212504 | 53 | 314 | 1.7 | 2.6 | 0.00 | 0.59 | 0.59 | 76 | |
| 20260506212004 | 53 | 309 | 1.7 | 5.2 | 0.00 | 0.59 | 0.59 | 76 | |
| 20260506211525 | 53 | 303 | 1.7 | 5.2 | 0.00 | 0.59 | 0.59 | 75 | |
| 20260506211004 | 53 | 296 | 1.7 | 3.5 | 0.00 | 0.59 | 0.59 | 77 | |
| 20260506210504 | 53 | 313 | 2.6 | 3.5 | 0.00 | 0.59 | 0.59 | 77 | |
| 20260506210004 | 53 | 300 | 2.6 | 5.2 | 0.00 | 0.59 | 0.59 | 77 | |
| 20260506205504 | 53 | 287 | 2.6 | 5.2 | 0.00 | 0.59 | 0.59 | 77 | |
| 20260506205004 | 53 | 296 | 2.6 | 7.8 | 0.00 | 0.59 | 0.59 | 78 | |
| 20260506204504 | 53 | 296 | 2.6 | 7.8 | 0.00 | 0.59 | 0.59 | 77 | |
| 20260506204004 | 53 | 291 | 4.3 | 6.1 | 0.00 | 0.59 | 0.59 | 78 | |
| 20260506203504 | 53 | 291 | 4.3 | 8.7 | 0.00 | 0.59 | 0.59 | 77 | |
| 20260506203004 | 53 | 292 | 4.3 | 8.7 | 0.00 | 0.59 | 0.59 | 77 | |
| 20260506202503 | 53 | 300 | 4.3 | 8.7 | 0.00 | 0.59 | 0.59 | 78 | |
| 20260506202025 | 53 | 304 | 4.3 | 8.7 | 0.00 | 0.59 | 0.59 | 77 | |
| 20260506201503 | 53 | 294 | 4.3 | 7.8 | 0.00 | 0.59 | 0.59 | 77 | |
| 20260506201004 | 53 | 290 | 4.3 | 7.8 | 0.00 | 0.59 | 0.59 | 78 | |
| 20260506200503 | 53 | 297 | 5.2 | 7.8 | 0.00 | 0.59 | 0.59 | 78 | |
| 20260506200004 | 53 | 296 | 5.2 | 9.6 | 0.00 | 0.59 | 0.59 | 77 | |
| 20260506195503 | 54 | 288 | 5.2 | 9.6 | 0.00 | 0.59 | 0.59 | 77 | |
| 20260506195003 | 54 | 288 | 5.2 | 7.8 | 0.00 | 0.59 | 0.59 | 78 | |
| 20260506194503 | 54 | 300 | 4.3 | 7.8 | 0.00 | 0.59 | 0.59 | 79 | |
| 20260506194004 | 54 | 302 | 4.3 | 7.8 | 0.00 | 0.59 | 0.59 | 79 | |
| 20260506193504 | 54 | 294 | 4.3 | 7.8 | 0.00 | 0.59 | 0.59 | 79 | |
| 20260506193003 | 54 | 295 | 4.3 | 7.8 | 0.00 | 0.59 | 0.59 | 79 | |
| 20260506192504 | 54 | 305 | 4.3 | 8.7 | 0.00 | 0.59 | 0.59 | 79 | |
| 20260506192003 | 54 | 306 | 4.3 | 8.7 | 0.00 | 0.59 | 0.59 | 79 | |
| 20260506191525 | 55 | 308 | 4.3 | 8.7 | 0.00 | 0.59 | 0.59 | 79 | |
| 20260506191024 | 55 | 313 | 3.5 | 8.7 | 0.00 | 0.59 | 0.59 | 79 | |
| 20260506190505 | 55 | 313 | 2.6 | 7.8 | 0.00 | 0.59 | 0.59 | 80 | |
| 20260506190005 | 55 | 321 | 2.6 | 7.0 | 0.00 | 0.59 | 0.59 | 80 |